www.pogodaiklimat.ru

Погода и климат >> Архив погоды >> Россия >> Коми >> Усть-Уса


АРХИВ ПОГОДЫ в Усть-Усе

Время (UTC), дата Ветер
(напр.,м/с)
 
Видим.   Явления Облачность Т
(С)
Тd
(С)
f
(%)
Тe
(С)
Тes
(С)
Комфортность P
(гПа)
Po
(гПа)
Тmin
(С)
Tmax
(С)
R
(мм)
R24
(мм)
S
(см)
21 15.09 Ю 6-11
{14}
50 км 10/6 870 м
[Sc Ac und]
+8.3 +4.1 75 +4 +4 990.1 980.9
00 16.09 Ю 5-10
{14}
20 км слаб. дождь 10/5 840 м
[Sc Ac As]
+6.9 +5.0 88 +3 +3 989.2 980.0
03 16.09 Ю 5-11
{12}
20 км слаб. дождь 10/8 330 м
[Frnb Ac As]
+6.4 +5.2 92 +2 +2 988.1 978.9 +6.2 3
06 16.09 Ю 5
{13}
20 км слаб. дождь 10/10 500 м
[Frnb Ns]
+6.2 +5.0 92 +2 +2 988.0 978.8 +6.1
09 16.09 Ю 5
{11}
20 км слаб. дождь 10/10 480 м
[Frnb Ns]
+6.1 +4.7 91 +2 +2 989.1 979.8
12 16.09 ЮЗ 4
{11}
20 км слаб. дождь 10/10 660 м
[Frnb Ns]
+6.7 +5.4 91 +3 +3 990.3 981.0
15 16.09 Ю 3
{12}
50 км {дождь} 10/4 1000 м
[Sc Ac As]
+7.2 +5.6 90 +4 +4 991.3 982.1 +7.2 3
18 16.09 ЮВ 2 50 км {дождь} 8/8 720 м
[Sc]
+5.9 +3.9 87 +3 +3 991.3 982.0
21 16.09 ЮВ 2 50 км 8/8 720 м
[Sc]
+5.5 +3.5 87 +3 +3 990.9 981.6
00 17.09 ЮВ 2 50 км 10/10 800 м
[Sc]
+4.7 +2.9 88 +2 +2 990.5 981.2
03 17.09 ЮВ 3 20 км слаб. дождь 10/10 330 м
[Frnb Ns]
+5.0 +4.0 93 +1 +1 990.0 980.7 +4.6 0.5
06 17.09 ЮВ 3 50 км {дождь} 9/9 300 м
[Cb calv]
+6.4 +4.9 90 +3 +3 989.6 980.4
09 17.09 Ю 3 50 км в посл. час ливневой дождь 10/10 600 м
[Cb calv]
+8.1 +5.9 86 +5 +5 989.8 980.6
12 17.09 Ю 2 50 км {ливн. осадки} 9/9 930 м
[Cb calv]
+8.4 +6.5 88 +6 +7 990.4 981.2
15 17.09 ЮВ 2 50 км 9/9 1300 м
[Sc]
+7.5 +6.1 91 +5 +5 990.5 981.3 +8.5 0.2
18 17.09 ЮВ 2 50 км в посл. час ливневой дождь 10/10 540 м
[Cb calv]
+7.3 +6.5 95 +5 +5 990.4 981.2
21 17.09 ЮВ 2 50 км 9/9 720 м
[Sc]
+6.8 +6.2 96 +4 +4 990.1 980.9
00 18.09 ЮВ 2 50 км 6/6 840 м
[Sc]
+5.8 +5.2 96 +3 +3 990.3 981.0
03 18.09 Ю 2 50 км 10/10 210 м
[St]
+5.5 +5.0 97 +3 +3 990.5 981.2 +5.4 0.0
06 18.09 ЮВ 3 10 км слаб. ливневой дождь {туман} 10/10 120 м
[Frnb]
+6.9 +6.4 97 +4 +4 990.9 981.7
09 18.09 Ю 2 50 км {ливн. осадки} 8/4 300 м
[Cb calv Ac trans]
+9.5 +7.0 84 +8 +9 991.5 982.4
12 18.09 СЗ 4 50 км в посл. час ливневой дождь 9/9 420 м
[Cb calv]
+7.6 +6.6 93 +4 +4 993.2 984.0
15 18.09 СЗ 4 20 км слаб. ливневой дождь 10/10 400 м
[Cb calv]
+4.6 +3.7 94 0 0 995.2 985.8 +9.9 0.9
18 18.09 СЗ 3 50 км {ливн. осадки} 10/10 1110 м
[Sc]
+4.5 +2.2 85 +1 +1 995.8 986.4
21 18.09 СЗ 2 50 км 8/0
[Ac trans]
+3.3 +2.3 93 0 0 996.4 987.0
00 19.09 СЗ 3 50 км 9/0
[Ac trans]
+2.4 +1.1 91 -2 -2 996.9 987.5
03 19.09 С 2 50 км 9/9 180 м
[St]
+1.1 +0.4 95 -3 -3 997.3 987.8 +1.1 0.0
06 19.09 В 1 50 км 9/9 700 м
[Sc]
+3.1 +1.3 88 +2 +2 997.9 988.4
09 19.09 СЗ 4 50 км 9/9 1020 м
[Sc]
+5.3 +0.3 70 +2 +2 998.0 988.7
12 19.09 СЗ 3 50 км 9/8 960 м
[Sc Ac trans]
+6.2 +0.1 65 +3 +3 998.4 989.1
15 19.09 СЗ 2 50 км 9/3 1000 м
[Sc Ac trans Ci fib]
+4.1 +0.7 78 +1 +1 999.3 989.9 +6.4
18 19.09 СЗ 3 50 км 3/1 1000 м
[Sc Ac trans]
+2.9 +0.6 85 -1 -1 999.0 989.5
21 19.09 СЗ 3 50 км 8/3 1000 м
[Sc Ac trans]
+1.3 +0.2 92 -3 -3 999.0 989.5
00 20.09 З 2 50 км 6/0
[Ac trans]
+0.3 -0.4 95 -3 -3 999.7 990.1
03 20.09 З 2 50 км 9/8 210 м
[Frnb Ac trans]
-0.4 -0.9 96 -4 -4 1000.2 990.6 -0.6
06 20.09 З 3 50 км в посл. час ливневой снег 10/10 270 м
[Cb calv]
+1.6 +0.6 93 -3 -3 1000.7 991.2
09 20.09 З 3 50 км {ливн. осадки} 10/10 420 м
[Cb calv]
+3.3 +1.1 85 -1 -1 1002.0 992.5
12 20.09 З 4 50 км {ливн. осадки} 8/8 450 м
[Cb calv]
+4.2 +1.1 80 -0 0 1003.0 993.6
15 20.09 З 3 50 км 4/4 1000 м
[Sc]
+3.1 +0.5 83 -1 -1 1003.4 993.9 +4.7 0.4
18 20.09 З 1 50 км 10/0
[Ac und]
+1.6 +0.1 90 -0 -0 1003.8 994.3
21 20.09 ЮЗ 2 50 км 9/0
[Ac trans]
+1.3 -0.1 90 -2 -2 1003.8 994.2
00 21.09 Ю 1 50 км 9/0
[Ac trans]
+0.9 -0.8 88 -1 -1 1003.6 994.0
03 21.09 Ю 2 50 км 9/4 1000 м
[Sc Ac trans]
+0.4 -0.9 91 -3 -3 1003.4 993.8 +0.4
06 21.09 Ю 4 50 км 10/10 240 м
[Frnb]
+0.9 -0.5 90 -4 -4 1003.6 994.0 +0.2
09 21.09 Ю 3 20 км слаб. ливневой снег 8/4 300 м
[Cb calv Ac trans]
+1.8 -0.3 86 -3 -2 1003.6 994.0
12 21.09 Ю 3 50 км {ливн. осадки} 3/3 1000 м
[Sc]
+4.1 -0.9 70 +1 +1 1003.2 993.7
15 21.09 ЮВ 1 50 км 6/1 1000 м
[Sc Cs]
+0.2 -1.7 87 -2 -2 1002.7 993.1 +4.5 0.0
18 21.09 В 2 20 км слаб. ливневой дождь 10/10 500 м
[Cb calv]
+1.4 0.0 90 -2 -2 1002.0 992.5
21 21.09 В 2 50 км {ливн. осадки} 10/10 210 м
[Cb calv]
+1.0 +0.3 95 -3 -3 1001.3 991.7
00 22.09 В 1 50 км {ливн. осадки} 10/10 210 м
[Frnb]
+0.7 +0.3 97 -1 -1 1000.6 991.1
03 22.09 СВ 1 50 км 10/10 330 м
[Frnb]
+0.7 +0.3 97 -1 -1 1000.3 990.8 -0.5 0.4
06 22.09 СВ 2 50 км 10/10 480 м
[Cb calv]
+2.1 +0.7 90 -1 -1 999.9 990.4
09 22.09 С 3 50 км {ливн. осадки} 10/10 480 м
[Cb calv]
+2.8 +0.2 83 -1 -1 999.2 989.7
12 22.09 СЗ 4 50 км {ливн. осадки} 9/4 300 м
[Cb calv Ac trans]
+3.1 -0.2 79 -1 -1 999.0 989.6
15 22.09 СЗ 3 50 км 9/4 300 м
[Cb calv Ac trans]
+1.5 -0.3 88 -3 -3 998.3 988.8 +3.6 0.0

 

Местоположение метеостанции Усть-Уса (Коми, Россия): широта 65.97 долгота 56.92 высота над уровнем моря 78 м.

В архиве по умолчанию представлена погода в Усть-Усе за последнюю неделю. Архивные данные за месяц целиком и за предыдущие месяцы, начиная с января 2011 года, Вы можете получить, выбрав интересующий диапазон дат из раскрывающегося списка и нажав кнопку "Ввод!".


*Определитесь, кто Вы:
робот инопланетянин человек

Внимание! Время в таблицах - всемирное. Для получения местного времени необходимо прибавить поправку, которая равна 3 ч.

Смотрите также архив погоды в соседних городах и на ближайших метеорологических станциях:

Погода в Усинске (Коми, Россия) (21 км)
Погода в Мутном Материке (Коми, Россия) (79 км)
Погода в Печоре (Коми, Россия) (95 км)
Погода в Харуте (Ненецкий АО, Россия) (152 км)
Погода в Хорей-Вере (Ненецкий АО, Россия) (169 км)
Погода в Ижме (Коми, Россия) (175 км)
Погода в Ираеле (Коми, Россия) (176 км)
Погода в Петруни (Коми, Россия) (180 км)
Погода в Усть-Щугоре (Коми, Россия) (192 км)
Погода в Окуневом Носу (Коми, Россия) (198 км)

Пояснения к столбцам:

Ветер - указаны скорость ветра в м/с - средняя за 10 мин, порывы в срок и между сроками (в фигурных скобках) и направление, откуда дует ветер: С - северный, СВ - северо-восточный, В - восточный, ЮВ - юго-восточный, Ю - южный, ЮЗ - юго-западный, З - западный, СЗ - северо-западный.
Видимость - горизонтальная дальность видимости в метрах или километрах. При видимости от 1 до 10 км при отсутствии осадков обычно наблюдается дымка, при ухудшении видимости до 1 км и менее - туман. В сухую погоду видимость может ухудшаться дымом, пылью или мглою.
Явления - указаны атмосферные явления, наблюдавшиеся в срок или в последний час перед сроком; фигурными скобками обозначены явления, наблюдавшиеся между сроками (за 1-3 часа до срока); квадратными скобками обозначены град или гололедные отложения с указанием их диаметра в мм.
Облачность - указаны через наклонную черту общая и нижняя облачность в баллах и высота нижней границы облаков в метрах; квадратными скобками обозначены формы облаков: Ci - перистые, Cs - перисто-слоистые, Cc - перисто-кучевые, Ac - высококучевые, As - высокослоистые, Sc - слоисто-кучевые, Ns - слоисто-дождевые, Cu - кучевые, Cb - кучево-дождевые. Подробнее классификацию облаков см. в Атласе облаков (PDF).
T - Температура воздуха - температура, измеренная на высоте 2 м над землей.
Td - Температура точки росы - температура, при понижении до которой содержащийся в воздухе водяной пар достигнет насыщения.
f - Относительная влажность воздуха - влажноcть воздуха, измеренная на высоте 2 м над землей.
Te - Эффективная температура - температура, которую ощущает одетый по сезону человек в тени. Характеристика душности погоды. При расчете учитывается влияние влажности воздуха и скорости ветра на теплоощущения человека.
Tes - Эффективная температура на солнце - температура, которую ощущает человек, с поправкой на солнечный нагрев. Характеристика знойности погоды. Зависит от высоты солнца над горизонтом, облачности и скорости ветра. Ночью, в пасмурную погоду, а также при ветре 12 м/с и более поправка равна нулю.
P - Атмосферное давление - приведенное к уровню моря атмосферное давление.
Po - Атмосферное давление - измеренное на уровне метеостанции атмосферное давление.
Tmin - Минимальная температура - минимум температуры воздуха на высоте 2 м над землей.
Tmax - Максимальная температура - максимум температуры воздуха на высоте 2 м над землей.
R - Количество осадков - Количество выпавших осадков за период времени, мм. При наведении курсора мыши на число - период времени, за который выпало указанное количество осадков.
R24 - Количество осадков - Количество выпавших осадков за 24 часа, мм.
S - Снежный покров - Высота снежного покрова, см. При наведении курсора мыши на число - состояние снежного покрова и степень покрытия местности в баллах.